This is the latest recevied weather packets stored in our database for station/object KC5TXI. If no packets are shown the sender has not sent any weather packets the latest 10 day(s).
| Time | Temp. | Humidity | Pressure | Rain* | Wind** | Luminosity | Snow |
|---|---|---|---|---|---|---|---|
| 1777775121 | 16.67° C | 64% | 1020.9 hPa | 0 mm | - | 0 W/m² | - |
| 1777774513 | 17.22° C | 63% | 1020.8 hPa | 0 mm | - | 0 W/m² | - |
| 1777768446 | 21.67° C | 44% | 1020.2 hPa | 0 mm | - | 19 W/m² | - |
| 1777767537 | 22.78° C | 41% | 1020.3 hPa | 0 mm | - | 26 W/m² | - |
| 1777766931 | 23.33° C | 38% | 1020.4 hPa | 0 mm | - | 29 W/m² | - |
| 1777766628 | 23.33° C | 37% | 1020.2 hPa | 0 mm | - | 31 W/m² | - |
| 1777766325 | 23.33° C | 37% | 1020.1 hPa | 0 mm | - | 33 W/m² | - |
| 1777766022 | 23.89° C | 35% | 1020.4 hPa | 0 mm | - | 35 W/m² | - |
| 1777765719 | 23.89° C | 38% | 1020.3 hPa | 0 mm | - | 37 W/m² | - |
| 1777765415 | 23.89° C | 38% | 1020.3 hPa | 0 mm | - | 38 W/m² | - |
| 1777765112 | 23.89° C | 38% | 1020.4 hPa | 0 mm | - | 51 W/m² | - |
| 1777764803 | 23.89° C | 37% | 1020.4 hPa | 0 mm | - | 52 W/m² | - |
| 1777764500 | 23.89° C | 38% | 1020.3 hPa | 0 mm | - | 67 W/m² | - |
| 1777763893 | 24.44° C | 38% | 1020.4 hPa | 0 mm | - | 56 W/m² | - |
| 1777763591 | 24.44° C | 38% | 1020.3 hPa | 0 mm | - | 64 W/m² | - |
| 1777761169 | 26.67° C | 33% | 1020.4 hPa | 0 mm | - | 288 W/m² | - |
| 1777760866 | 26.67° C | 33% | 1020.5 hPa | 0 mm | - | 327 W/m² | - |
| 1777760562 | 26.67° C | 36% | 1020.3 hPa | 0 mm | - | 376 W/m² | - |
| 1777758439 | 26.67° C | 36% | 1020.8 hPa | 0 mm | - | 410 W/m² | - |
| 1777757833 | 26.67° C | 33% | 1020.9 hPa | 0 mm | - | 429 W/m² | - |
| 1777757229 | 25° C | 35% | 1021 hPa | 0 mm | - | 499 W/m² | - |
| 1777756927 | 25° C | 36% | 1021 hPa | 0 mm | - | 124 W/m² | - |
| 1777755714 | 25.56° C | 35% | 1021.4 hPa | 0 mm | - | 562 W/m² | - |
| 1777755411 | 25.56° C | 34% | 1021.3 hPa | 0 mm | - | 586 W/m² | - |
| 1777754804 | 25.56° C | 33% | 1021.6 hPa | 0 mm | - | 522 W/m² | - |
* Rain latest hour (hover to see other rain measurements)
** Current wind speed in m/s (hover to see current wind gust speed)